Location: Unspecified
(41.1850°N, 73.2650°W)
Time: 13:24:31
(UTC+00:00)

SL-08 R/B - Pass Details

Date: 21 March 2026
Orbit: 946 x 992 km, 83.0° (Epoch: 18 April)

Event Time Altitude Azimuth Distance (km) Brightness Sun altitude
Rises 01:05:15 0° 187° (S) 3,609 7.3 -22.8°
Reaches altitude 10° 01:07:44 10° 187° (S) 2,664 6.6 -23.3°
Maximum altitude 01:13:49 86° 276° (W) 954 4.4 -24.3°
Drops below altitude 10° 01:19:57 10° 7° (N) 2,676 7.0 -25.4°
Sets 01:22:27 0° 8° (N) 3,626 7.7 -25.8°
